Flag for Netherlands Weather past 2 weeks in Almere, Netherlands

Now
64 °F

Fog.


Feels Like: 64 °F
Forecast: 60 / 71 °F
Wind: 3 mph from East

Location: Amsterdam Schiphol Airport

Current Time: Sep 19, 2014 at 9:54:01 AM

Latest Report: Sep 19, 2014 at 9:25 AM


Visibility: 2 mi

Pressure: 29.86 "Hg

Humidity: 94%

Dew point: 63 °F

Location of AlmereLocation

Historic Weather in Almere — Graph

°F

Almere temperature yesterday

Maximum temperature yesterday: 77 °F (at 1:55 PM)
Minimum temperature yesterday: 57 °F (at 5:55 AM)
Average temperature yesterday: 67 °F

Past Weeks' High & Low Weather Summary

 TemperatureHumidityPressure
High77 °F (Sep 17, 3:25 PM)100% (Sep 5, 4:25 AM)30.30 "Hg (Sep 5, 4:25 AM)
Low50 °F (Sep 8, 5:25 AM)49% (Sep 10, 2:25 PM)29.80 "Hg (Sep 18, 2:25 PM)
Average63 °F83%30.04 "Hg
* Reported Sep 4 8:25 AM — Sep 19 8:55 AM, Almere, Weather by CustomWeather, © 2014

Note: Actual official high and low records may vary slightly from our data, if they occured in-between our weather recording intervals... More about our weather records

Advertising

Almere weather history for previous 24 hours

 ConditionsComfort  
Time TempWeatherWind HumidityBarometerVisibility
8:55 AM
Sep 19
63 °FFog.5 mph100%29.83 "Hg2 mi
8:25 AM61 °FCool.1 mph100%29.83 "Hg2 mi
7:55 AM59 °FFog.3 mph100%29.83 "Hg2 mi
7:25 AM59 °FCool.2 mph100%29.83 "Hg2 mi
6:55 AM61 °FFog.2 mph100%29.83 "Hg3 mi
6:25 AM59 °FFog.5 mph100%29.83 "Hg3 mi
5:55 AM59 °FFog.3 mph100%29.83 "Hg3 mi
5:25 AM61 °FFog.3 mph100%29.83 "Hg4 mi
4:55 AM59 °FFog.5 mph100%29.83 "Hg4 mi
4:25 AM61 °FFog.3 mph100%29.83 "Hg5 mi
3:55 AM61 °FFog.3 mph100%29.83 "Hg5 mi
3:25 AM61 °FFog.5 mph100%29.83 "Hg6 mi
2:55 AM59 °FFog.3 mph100%29.83 "HgN/A
2:25 AM63 °FClear.3 mph94%29.83 "Hg10 mi
1:55 AM63 °FClear.2 mph94%29.83 "Hg10 mi
1:25 AM64 °FClear.2 mph88%29.83 "Hg10 mi
12:55 AM63 °FClear.5 mph94%29.83 "Hg10 mi
12:25 AM63 °FClear.5 mph94%29.83 "Hg10 mi
11:55 PM
Sep 18
64 °FPassing clouds.5 mph88%29.83 "HgN/A
11:25 PM63 °FPassing clouds.3 mph94%29.83 "HgN/A
10:55 PM63 °FClear.3 mph94%29.83 "Hg10 mi
10:25 PM64 °FClear.3 mph94%29.83 "Hg10 mi
9:55 PM64 °FPassing clouds.5 mph88%29.83 "HgN/A
9:25 PM66 °FClear.3 mph88%29.83 "Hg10 mi
8:55 PM66 °FPassing clouds.3 mph88%29.83 "HgN/A
8:25 PM68 °FPassing clouds.5 mph83%29.83 "HgN/A
7:55 PM70 °FPassing clouds.5 mph78%29.80 "HgN/A
7:25 PM70 °FScattered clouds.6 mph78%29.80 "HgN/A
6:55 PM73 °FPassing clouds.7 mph69%29.80 "HgN/A
6:25 PM75 °FPassing clouds.6 mph69%29.80 "HgN/A
5:55 PM77 °FPassing clouds.5 mph61%29.80 "HgN/A
5:25 PM77 °FPassing clouds.6 mph61%29.80 "HgN/A
4:55 PM77 °FPassing clouds.7 mph57%29.80 "HgN/A
4:25 PM77 °FPassing clouds.8 mph54%29.80 "HgN/A
3:55 PM77 °FPassing clouds.8 mph54%29.80 "HgN/A
3:25 PM77 °FPassing clouds.9 mph57%29.80 "HgN/A
2:55 PM77 °FPassing clouds.9 mph61%29.80 "HgN/A
2:25 PM77 °FPassing clouds.10 mph61%29.80 "HgN/A
1:55 PM77 °FPassing clouds.8 mph65%29.83 "HgN/A
1:25 PM75 °FPassing clouds.8 mph69%29.83 "HgN/A
12:55 PM75 °FPassing clouds.8 mph65%29.83 "HgN/A
12:25 PM73 °FPassing clouds.8 mph69%29.83 "HgN/A
11:55 AM73 °FPassing clouds.8 mph69%29.83 "HgN/A
11:25 AM70 °FSunny.7 mph78%29.83 "Hg10 mi
10:55 AM68 °FPassing clouds.8 mph78%29.83 "HgN/A
10:25 AM66 °FSunny.7 mph83%29.83 "Hg10 mi
9:55 AM66 °FSunny.6 mph83%29.83 "Hg10 mi
9:25 AM64 °FClear.6 mph83%29.83 "Hg6 mi
Weather by CustomWeather, © 2014

See weather overviewHow to use our weather pages